User: anonymous   Login
Location: Burland Observatory
(39.4088°N, 105.4217°W)
Time: 14:47:35
(UTC-07:00)
Language:

A-11 Canister half - Orbit

View from above orbital plane
View from above orbital plane
View from above satellite
View from above satellite

Ground track
Ground track

The orbit data is extracted from the following two-line orbital elements,

1    51U 60009C   19344.90698117 -.00000125 +00000-0 -39004-3 0  9992
2    51 047.2104 213.8263 0106248 321.1293 038.1891 12.18274037640985
Epoch (UTC): 10 December 2019 21:46:03
Eccentricity: 0.0106248
inclination: 47.2104°
perigee height: 1515 km
apogee height: 1685 km
right ascension of ascending node: 213.8263°
argument of perigee: 321.1293°
revolutions per day: 12.18274037
mean anomaly at epoch: 38.1891°
orbit number at epoch: 64098

The dashed part of the orbit path shows where the satellite is in the earth's shadow,  

DLR